Location: Newark
(52.5667°N, 8.8000°W)
Time: 18:42:03
(UTC+00:00)

Envisat - Visible Passes

Search period start: 27 January 2020 00:00
Search period end: 06 February 2020 00:00
Orbit: 764 x 766 km, 98.1° (Epoch: 27 January)

Date Brightness Start Highest point End Pass type
(mag) Time Alt. Az. Time Alt. Az. Time Alt. Az.
27 Jan 5.0 06:37:39 10° NNE 06:42:13 32° E 06:46:44 10° SSE visible
27 Jan 3.0 17:57:49 10° SSE 18:02:52 73° ENE 18:07:58 10° NNW visible
27 Jan 5.7 19:38:48 10° SW 19:42:28 20° W 19:46:09 10° NW visible
28 Jan 6.0 06:01:44 10° NE 06:05:01 17° E 06:08:16 10° SE visible
28 Jan 3.0 07:39:36 10° NNE 07:44:44 85° WNW 07:49:49 10° SSW visible
28 Jan 4.6 19:00:37 10° SSW 19:05:18 37° W 19:10:03 10° NNW visible
29 Jan 4.0 07:02:54 10° NNE 07:07:52 51° E 07:12:48 10° S visible
29 Jan 3.3 18:23:17 10° S 18:28:22 72° WSW 18:33:29 10° NNW visible
29 Jan 6.3 20:06:19 10° WSW 20:08:20 12° W 20:10:21 10° WNW visible
30 Jan 5.3 06:26:32 10° NE 06:30:49 27° E 06:35:05 10° SSE visible
30 Jan 3.0 17:46:36 10° SSE 17:51:36 61° ENE 17:56:37 10° N visible
30 Jan 5.4 19:26:58 10° SW 19:31:02 24° W 19:35:07 10° NW visible
31 Jan 6.2 05:50:58 10° NE 05:53:33 14° E 05:56:08 10° ESE visible
31 Jan 3.2 07:28:18 10° NNE 07:33:26 80° ESE 07:38:32 10° SSW visible
31 Jan 4.2 18:49:05 10° S 18:53:57 45° W 18:58:51 10° NNW visible
01 Feb 4.4 06:51:41 10° NNE 06:56:31 42° E 07:01:19 10° SSE visible
01 Feb 3.1 18:11:58 10° SSE 18:17:03 87° WSW 18:22:11 10° NNW visible
01 Feb 6.1 19:53:58 10° WSW 19:56:52 15° W 19:59:45 10° NW visible
02 Feb 5.6 06:15:28 10° NE 06:19:24 22° E 06:23:19 10° SE visible
02 Feb 5.1 19:15:15 10° SSW 19:19:38 29° W 19:24:02 10° NNW visible
03 Feb 6.4 05:40:36 10° ENE 05:42:05 11° E 05:43:33 10° E visible
03 Feb 3.5 07:17:01 10° NNE 07:22:07 67° ESE 07:27:10 10° S visible
03 Feb 3.8 18:37:37 10° S 18:42:36 55° W 18:47:37 10° NNW visible
04 Feb 4.9 06:40:30 10° NNE 06:45:09 34° E 06:49:45 10° SSE visible
04 Feb 3.0 18:00:41 10° SSE 18:05:46 79° ENE 18:10:52 10° NNW visible
04 Feb 5.9 19:41:56 10° SW 19:45:25 18° W 19:48:54 10° NW visible
05 Feb 5.9 06:04:29 10° NE 06:07:58 18° E 06:11:26 10° SE visible
05 Feb 4.8 19:03:37 10° SSW 19:08:14 35° W 19:12:54 10° NNW visible
